C2862 Weather Reports


Display with metric or nautical units.
time (UTC)temp
F
wind
direction
speed
MPH
gust
MPH
rain 1hr
in
rain 24hr
in
rain mn
in
humidity
%
barometer
mb
20260510163705 72 202 1.0 10.0 0.00 0.28 0.04 76 1010.6
20260510162652 71 129 2.0 10.0 0.00 0.28 0.04 76 1010.7
20260510161628 71 160 1.0 9.0 0.00 0.28 0.04 76 1010.8
20260510160643 71 0 2.0 8.0 0.00 0.28 0.04 77 1010.8
20260510154515 69 0 0.0 0.0 0.00 0.28 0.04 85 1010.7
20260510153449 67 0 1.0 9.0 0.00 0.27 0.03 88 1011.1
20260510152455 65 0 1.0 6.0 0.00 0.27 0.03 90 1011.0
20260510150344 62 136 1.0 5.0 0.00 0.27 0.03 98 1011.1
20260510144127 60 146 0.0 0.0 0.00 0.27 0.03 100 1011.1
20260510143057 59 171 0.0 4.0 0.00 0.27 0.03 100 1011.2
20260510140917 59 132 0.0 1.0 0.00 0.27 0.03 100 1011.2
20260510134706 57 0 0.0 1.0 0.00 0.27 0.03 100 1011.0
20260510133632 57 0 0.0 1.0 0.00 0.27 0.03 100 1011.2
20260510132630 57 0 0.0 2.0 0.00 0.27 0.03 100 1011.0
20260510131607 57 0 0.0 3.0 0.00 0.27 0.03 100 1010.9
20260510125457 55 0 0.0 1.0 0.00 0.27 0.03 100 1010.8
20260510124507 55 0 0.0 0.0 0.00 0.27 0.03 100 1010.6
20260510123433 55 0 0.0 0.0 0.00 0.27 0.03 100 1010.6
20260510122416 55 0 0.0 0.0 0.00 0.27 0.03 100 1010.6
20260510121424 55 0 0.0 0.0 0.00 0.26 0.02 100 1010.5
20260510120430 55 0 0.0 0.0 0.00 0.26 0.02 100 1010.4
20260510115414 54 0 0.0 0.0 0.00 0.26 0.02 99 1010.2
20260510113256 54 42 0.0 0.0 0.00 0.26 0.02 99 1010.2
20260510112225 53 19 0.0 1.0 0.00 0.26 0.02 99 1010.1
20260510111214 53 19 0.0 0.0 0.00 0.26 0.02 99 1009.8
20260510110211 53 19 0.0 1.0 0.00 0.26 0.02 99 1009.8
20260510105232 52 17 0.0 0.0 0.00 0.26 0.02 99 1009.6
20260510104206 52 333 0.0 0.0 0.00 0.26 0.02 99 1009.5
20260510103229 52 333 0.0 0.0 0.00 0.26 0.02 99 1009.6
20260510101132 52 333 0.0 0.0 0.00 0.26 0.02 99 1009.6
20260510095029 52 294 0.0 0.0 0.00 0.26 0.02 99 1009.8
20260510094005 52 294 0.0 0.0 0.00 0.26 0.02 99 1009.6
20260510093002 52 294 0.0 0.0 0.00 0.26 0.02 99 1009.7
20260510091931 52 294 0.0 0.0 0.00 0.26 0.02 99 1009.7
20260510090858 52 294 0.0 0.0 0.00 0.26 0.02 98 1009.9
20260510085833 53 294 0.0 0.0 0.00 0.26 0.02 99 1010.1
20260510084845 53 294 0.0 0.0 0.00 0.26 0.02 99 1010.1
20260510083902 53 294 0.0 0.0 0.00 0.26 0.02 99 1010.0
20260510081800 53 292 1.0 5.0 0.00 0.26 0.02 99 1010.1
20260510080727 53 242 0.0 4.0 0.00 0.26 0.02 99 1010.0
20260510075715 53 345 0.0 2.0 0.00 0.26 0.02 99 1009.8
20260510074645 53 355 0.0 0.0 0.00 0.25 0.01 98 1009.1
20260510073630 53 355 0.0 0.0 0.00 0.25 0.01 98 1009.1
20260510072635 53 355 0.0 0.0 0.00 0.25 0.01 98 1009.1
20260510070539 53 355 0.0 0.0 0.00 0.25 0.01 98 1009.1
20260510065528 53 355 0.0 0.0 0.00 0.25 0.01 98 1009.3
20260510064542 53 355 0.0 0.0 0.00 0.25 0.01 98 1009.3
20260510063552 53 355 0.0 0.0 0.00 0.25 0.01 98 1009.3
20260510062544 53 355 0.0 0.0 0.00 0.25 0.01 98 1009.2
20260510061518 53 355 0.0 0.0 0.00 0.25 0.01 98 1009.1
20260510060524 52 355 0.0 0.0 0.00 0.24 0.00 98 1009.0
20260510055539 52 355 0.0 0.0 0.00 0.24 0.00 98 1009.0
20260510054510 52 355 0.0 0.0 0.00 0.24 0.00 98 1008.9
20260510053510 52 355 0.0 0.0 0.00 0.24 0.00 98 1008.9
20260510052515 52 355 0.0 0.0 0.00 0.24 0.00 98 1009.0
20260510051539 52 355 0.0 0.0 0.00 0.24 0.00 98 1009.0
20260510050510 53 355 0.0 0.0 0.00 0.24 0.00 97 1009.1
20260510045519 53 355 0.0 0.0 0.00 0.24 0.00 98 1009.1
20260510044539 53 355 0.0 0.0 0.00 0.24 0.00 98 1009.2
20260510043601 53 355 0.0 0.0 0.00 0.24 0.00 98 1009.1
20260510041511 53 355 0.0 0.0 0.00 0.24 0.00 98 1009.2
20260510040447 53 355 0.0 0.0 0.00 0.24 0.00 97 1009.2
20260510035458 53 355 0.0 0.0 0.00 0.23 0.23 97 1009.1
20260510034519 53 355 0.0 0.0 0.00 0.23 0.23 97 1009.0
20260510033530 53 355 0.0 0.0 0.00 0.23 0.23 97 1008.9
20260510032457 53 355 0.0 0.0 0.00 0.23 0.23 97 1008.9
20260510031505 52 355 0.0 0.0 0.00 0.23 0.23 97 1008.8
20260510030527 52 355 0.0 0.0 0.00 0.23 0.23 97 1008.8
20260510025457 52 355 0.0 0.0 0.00 0.21 0.23 97 1008.8
20260510024424 52 355 0.0 0.0 0.00 0.21 0.21 97 1008.9
20260510022325 52 355 0.0 0.0 0.00 0.21 0.21 96 1008.9
20260510021342 53 355 0.0 0.0 0.00 0.21 0.21 96 1008.9
20260510020325 53 355 0.0 0.0 0.00 0.21 0.21 96 1008.9
20260510012958 54 355 0.0 0.0 0.00 0.21 0.21 96 1008.9
20260510010901 54 355 0.0 0.0 0.00 0.21 0.21 96 1008.5
20260510005902 54 355 0.0 0.0 0.00 0.19 0.21 96 1008.4
20260510002643 55 355 0.0 0.0 0.00 0.19 0.20 96 1008.3
20260510001631 55 355 0.0 0.0 0.00 0.19 0.20 96 1008.3
20260510000638 55 355 0.0 0.0 0.00 0.19 0.19 96 1008.2
20260509235636 56 355 0.0 0.0 0.00 0.19 0.19 96 1008.1
20260509234642 56 355 0.0 0.0 0.00 0.18 0.18 96 1008.0
20260509233653 56 355 0.0 0.0 0.00 0.18 0.18 97 1007.8
20260509232636 57 355 0.0 0.0 0.00 0.18 0.18 96 1007.9
20260509231604 57 256 0.0 0.0 0.00 0.16 0.18 97 1007.7
20260509230604 57 257 0.0 0.0 0.00 0.16 0.17 97 1008.0
20260509225622 57 0 0.0 0.0 0.00 0.16 0.16 97 1008.3
20260509223449 57 0 0.0 0.0 0.00 0.16 0.16 96 1008.2
20260509222449 57 256 0.0 0.0 0.00 0.14 0.15 96 1008.2
20260509221417 57 0 0.0 0.0 0.00 0.14 0.15 96 1008.2
20260509220424 56 168 0.0 0.0 0.00 0.13 0.13 95 1008.5
20260509215444 56 165 0.0 0.0 0.00 0.13 0.13 95 1008.6
20260509214455 57 164 0.0 0.0 0.00 0.13 0.13 95 1008.6
20260509212259 57 164 0.0 0.0 0.00 0.13 0.13 95 1008.6
20260509211314 57 164 0.0 0.0 0.00 0.12 0.12 95 1008.6
20260509210329 57 164 0.0 1.0 0.00 0.12 0.12 94 1008.4
20260509205330 57 165 0.0 0.0 0.00 0.12 0.12 94 1008.6
20260509202105 57 165 0.0 0.0 0.00 0.10 0.10 93 1008.8
20260509201032 57 165 0.0 1.0 0.00 0.10 0.10 93 1009.0
20260509200008 57 209 1.0 6.0 0.00 0.09 0.10 93 1008.8
20260509192724 59 159 0.0 2.0 0.00 0.09 0.09 93 1008.7
20260509191655 59 156 0.0 0.0 0.00 0.09 0.09 93 1008.6
20260509190711 58 0 0.0 1.0 0.05 0.08 0.08 92 1008.8
20260509185642 59 0 0.0 2.0 0.06 0.08 0.08 92 1008.8
20260509184646 59 223 0.0 0.0 0.04 0.06 0.06 91 1008.8
20260509183646 59 232 1.0 9.0 0.08 0.06 0.06 90 1008.8
20260509182640 60 267 1.0 8.0 0.06 0.04 0.05 89 1009.0
20260509181622 61 192 1.0 12.0 0.15 0.04 0.04 87 1009.0
20260509180558 62 116 2.0 12.0 0.10 0.02 0.02 83 1009.5
20260509175555 64 0 1.0 6.0 0.00 0.00 0.00 79 1009.1
20260509174601 65 0 2.0 9.0 0.00 0.00 0.00 76 1008.6
20260509173545 66 238 3.0 9.0 0.00 0.00 0.00 71 1008.5
20260509172552 66 138 2.0 9.0 0.00 0.00 0.00 69 1008.4
20260509171539 66 145 4.0 9.0 0.00 0.00 0.00 71 1008.4
20260509170600 65 122 4.0 9.0 0.00 0.00 0.00 70 1008.6
20260509164413 66 123 2.0 12.0 0.00 0.00 0.00 71 1008.6